TimeBST,TemperatureF,Dew PointF,Humidity,Sea Level PressureIn,VisibilityMPH,Wind Direction,Wind SpeedMPH,Gust SpeedMPH,PrecipitationIn,Events,Conditions,WindDirDegrees,DateUTC
12:20 AM,55.4,51.8,88,30.09,-9999.0,West,10.4,-,N/A,,Clear,270,2013-06-30 23:20:00
12:50 AM,57,50,70,30.09,25,West,9.2,,,,,260,2013-06-30 23:50:00
12:50 AM,55.4,51.8,88,30.09,6.2,West,10.4,-,N/A,,Partly Cloudy,270,2013-06-30 23:50:00
1:20 AM,57.2,51.8,82,30.09,6.2,West,12.7,-,N/A,,Mostly Cloudy,280,2013-07-01 00:20:00
1:50 AM,57.2,51.8,82,30.06,6.2,SW,10.4,-,N/A,,Scattered Clouds,230,2013-07-01 00:50:00
2:20 AM,59.0,51.8,77,30.06,6.2,SW,6.9,-,N/A,,Mostly Cloudy,220,2013-07-01 01:20:00
2:50 AM,59.0,51.8,77,30.06,6.2,SW,9.2,-,N/A,,Mostly Cloudy,230,2013-07-01 01:50:00
3:20 AM,59.0,51.8,77,30.04,6.2,WSW,9.2,-,N/A,,Mostly Cloudy,250,2013-07-01 02:20:00
3:50 AM,58,52,73,30.05,19,WSW,11.5,,,,Mostly Cloudy,250,2013-07-01 02:50:00
3:50 AM,57.2,53.6,88,30.04,6.2,West,11.5,-,N/A,,Mostly Cloudy,260,2013-07-01 02:50:00
4:20 AM,57.2,53.6,88,30.04,6.2,West,10.4,-,N/A,,Mostly Cloudy,270,2013-07-01 03:20:00
4:50 AM,55.4,51.8,88,30.04,6.2,WSW,8.1,-,N/A,,Partly Cloudy,250,2013-07-01 03:50:00
5:20 AM,55.4,51.8,88,30.04,6.2,West,10.4,-,N/A,,Partly Cloudy,260,2013-07-01 04:20:00
5:50 AM,55.4,51.8,88,30.04,6.2,WSW,10.4,-,N/A,,Partly Cloudy,250,2013-07-01 04:50:00
6:20 AM,57.2,51.8,82,30.06,-9999.0,WSW,10.4,-,N/A,,Clear,250,2013-07-01 05:20:00
6:50 AM,58,50,67,30.06,19,West,9.2,,,,,260,2013-07-01 05:50:00
6:50 AM,57.2,51.8,82,30.06,-9999.0,West,10.4,-,N/A,,Clear,260,2013-07-01 05:50:00
7:20 AM,59.0,51.8,77,30.06,6.2,West,12.7,-,N/A,,Partly Cloudy,270,2013-07-01 06:20:00
7:50 AM,59.0,51.8,77,30.06,6.2,West,11.5,-,N/A,,Partly Cloudy,280,2013-07-01 06:50:00
8:20 AM,60.8,51.8,72,30.06,6.2,West,11.5,-,N/A,,Partly Cloudy,270,2013-07-01 07:20:00
8:50 AM,60.8,51.8,72,30.06,6.2,West,10.4,-,N/A,,Partly Cloudy,270,2013-07-01 07:50:00
9:20 AM,60.8,50.0,68,30.06,6.2,West,9.2,-,N/A,,Scattered Clouds,280,2013-07-01 08:20:00
9:50 AM,62,48,50,30.06,16,West,9.2,,,,Mostly Cloudy,280,2013-07-01 08:50:00
9:50 AM,62.6,50.0,63,30.06,6.2,West,10.4,-,N/A,,Scattered Clouds,280,2013-07-01 08:50:00
10:20 AM,62.6,50.0,63,30.04,6.2,West,11.5,-,N/A,,Scattered Clouds,270,2013-07-01 09:20:00
10:50 AM,64.4,48.2,56,30.04,6.2,WSW,12.7,-,N/A,,Mostly Cloudy,250,2013-07-01 09:50:00
11:20 AM,66.2,48.2,52,30.04,6.2,West,13.8,-,N/A,,Mostly Cloudy,260,2013-07-01 10:20:00
11:50 AM,64.4,48.2,56,30.04,6.2,West,11.5,-,N/A,,Scattered Clouds,270,2013-07-01 10:50:00
12:20 PM,66.2,48.2,52,30.04,6.2,West,12.7,-,N/A,,Scattered Clouds,270,2013-07-01 11:20:00
12:50 PM,68,48,37,30.03,16,West,12.7,,,,Partly Cloudy,260,2013-07-01 11:50:00
12:50 PM,68.0,48.2,49,30.04,6.2,West,13.8,-,N/A,,Scattered Clouds,280,2013-07-01 11:50:00
1:20 PM,68.0,48.2,49,30.04,6.2,WSW,13.8,-,N/A,,Scattered Clouds,250,2013-07-01 12:20:00
1:50 PM,68.0,48.2,49,30.01,6.2,West,11.5,-,N/A,,Scattered Clouds,280,2013-07-01 12:50:00
2:20 PM,66.2,48.2,52,30.01,6.2,West,12.7,-,N/A,,Scattered Clouds,280,2013-07-01 13:20:00
2:50 PM,68.0,50.0,52,30.01,6.2,WNW,12.7,-,N/A,,Scattered Clouds,290,2013-07-01 13:50:00
3:20 PM,68.0,48.2,49,30.04,6.2,West,15.0,-,N/A,,Scattered Clouds,270,2013-07-01 14:20:00
3:50 PM,68,46,34,30.03,19,West,15.0,,,,Scattered Clouds,270,2013-07-01 14:50:00
3:50 PM,66.2,48.2,52,30.04,6.2,West,15.0,-,N/A,,Scattered Clouds,280,2013-07-01 14:50:00
4:20 PM,66.2,48.2,52,30.04,6.2,West,16.1,-,N/A,,Scattered Clouds,270,2013-07-01 15:20:00
4:50 PM,68.0,46.4,46,30.01,6.2,WNW,11.5,-,N/A,,Scattered Clouds,290,2013-07-01 15:50:00
5:20 PM,68.0,46.4,46,30.01,6.2,West,16.1,-,N/A,,Scattered Clouds,260,2013-07-01 16:20:00
5:50 PM,68.0,46.4,46,30.01,6.2,WNW,11.5,-,N/A,,Partly Cloudy,300,2013-07-01 16:50:00
6:20 PM,66.2,46.4,49,30.01,6.2,West,11.5,-,N/A,,Partly Cloudy,280,2013-07-01 17:20:00
6:50 PM,67,46,35,30.00,18,WSW,11.5,,,,Scattered Clouds,250,2013-07-01 17:50:00
6:50 PM,66.2,46.4,49,30.01,6.2,West,12.7,-,N/A,,Partly Cloudy,260,2013-07-01 17:50:00
7:20 PM,64.4,46.4,52,30.01,6.2,West,10.4,-,N/A,,Partly Cloudy,270,2013-07-01 18:20:00
7:50 PM,66.2,46.4,49,30.01,-9999.0,WSW,9.2,-,N/A,,Clear,250,2013-07-01 18:50:00
8:20 PM,64.4,46.4,52,30.01,6.2,West,9.2,-,N/A,,Partly Cloudy,270,2013-07-01 19:20:00
8:50 PM,62.6,46.4,55,30.01,-9999.0,West,10.4,-,N/A,,Clear,280,2013-07-01 19:50:00
9:20 PM,60.8,46.4,59,30.01,-9999.0,WSW,10.4,-,N/A,,Clear,250,2013-07-01 20:20:00
9:50 PM,63,46,43,30.01,16,West,9.2,,,,Mostly Cloudy,260,2013-07-01 20:50:00
9:50 PM,60.8,48.2,63,30.01,-9999.0,WSW,11.5,-,N/A,,Clear,250,2013-07-01 20:50:00
10:20 PM,60.8,48.2,63,30.01,-9999.0,West,10.4,-,N/A,,Clear,270,2013-07-01 21:20:00
10:50 PM,60.8,46.4,59,30.01,-9999.0,West,11.5,-,N/A,,Clear,270,2013-07-01 21:50:00
11:20 PM,57.2,48.2,72,30.01,-9999.0,West,9.2,-,N/A,,Clear,280,2013-07-01 22:20:00
11:50 PM,53.6,48.2,82,30.01,-9999.0,West,9.2,-,N/A,,Clear,280,2013-07-01 22:50:00